FW3019 Weather Reports


time (UTC)temp
F
wind
direction
speed
knots
gust
knots
rain 1hr
in
rain 24hr
in
rain mn
in
humidity
%
barometer
mb
20260510083229 67 198 0.0 0.0 0.00 0.00 0.00 93 1013.9
20260510083006 67 198 0.0 0.0 0.00 0.00 0.00 92 1013.8
20260510082214 67 198 0.0 0.0 0.00 0.00 0.00 92 1013.6
20260510081708 67 198 0.0 0.0 0.00 0.00 0.00 92 1013.5
20260510081202 67 197 0.0 0.0 0.00 0.00 0.00 92 1013.4
20260510080655 68 197 0.0 0.0 0.00 0.00 0.00 92 1013.2
20260510080150 68 198 0.0 0.0 0.00 0.00 0.00 92 1013.1
20260510075643 68 197 0.0 0.0 0.00 0.00 0.00 92 1013.2
20260510075141 68 197 0.0 0.0 0.00 0.00 0.00 91 1013.5
20260510074642 68 198 0.0 0.0 0.00 0.00 0.00 91 1013.7
20260510074141 68 197 0.0 0.0 0.00 0.00 0.00 91 1013.7
20260510073639 68 197 0.0 0.0 0.00 0.00 0.00 91 1013.7
20260510073136 68 197 0.0 0.0 0.00 0.00 0.00 91 1013.8
20260510072925 68 198 0.0 0.0 0.00 0.00 0.00 91 1013.8
20260510072218 68 197 0.0 0.0 0.00 0.00 0.00 91 1013.7
20260510072204 68 198 0.0 0.0 0.00 0.00 0.00 91 1013.8
20260510071130 68 197 0.0 0.0 0.00 0.00 0.00 91 1013.5
20260510070631 68 197 0.0 0.0 0.00 0.00 0.00 91 1013.3
20260510070131 68 197 0.0 0.0 0.00 0.00 0.00 91 1013.5
20260510065631 68 197 0.0 0.0 0.00 0.00 0.00 91 1013.5
20260510065131 68 198 0.0 0.0 0.00 0.00 0.00 91 1013.4
20260510064626 68 197 0.0 0.0 0.00 0.00 0.00 91 1013.5
20260510064125 68 198 0.0 0.0 0.00 0.00 0.00 91 1013.4
20260510063627 69 197 0.0 0.0 0.00 0.00 0.00 91 1013.4
20260510063420 69 197 0.0 0.0 0.00 0.00 0.00 91 1013.4
20260510062626 69 198 0.0 0.0 0.00 0.00 0.00 91 1013.5
20260510062413 69 197 0.0 0.0 0.00 0.00 0.00 91 1013.6
20260510061627 69 197 0.0 0.0 0.00 0.00 0.00 91 1013.6
20260510061127 69 198 0.0 0.0 0.00 0.00 0.00 91 1013.7
20260510060919 69 197 0.0 0.0 0.00 0.00 0.00 91 1013.8
20260510060122 69 197 0.0 0.0 0.00 0.00 0.00 91 1013.8
20260510055908 69 208 0.0 0.0 0.00 0.00 0.00 90 1014.0
20260510055121 69 208 0.0 0.0 0.00 0.00 0.00 91 1013.9
20260510054622 69 208 0.0 0.0 0.00 0.00 0.00 90 1013.9
20260510054121 69 208 0.0 0.0 0.00 0.00 0.00 90 1013.8
20260510053623 69 206 0.0 0.0 0.00 0.00 0.00 90 1013.8
20260510053412 69 155 0.0 0.0 0.00 0.00 0.00 90 1013.8
20260510052656 69 155 0.0 0.0 0.00 0.00 0.00 90 1013.8
20260510052644 69 155 0.0 0.0 0.00 0.00 0.00 90 1013.8
20260510051623 69 155 0.0 0.0 0.00 0.00 0.00 90 1013.8
20260510051123 69 155 0.0 0.0 0.00 0.00 0.00 90 1013.8
20260510050623 69 154 0.0 0.0 0.00 0.00 0.00 90 1013.8
20260510050411 69 154 0.0 0.0 0.00 0.00 0.00 89 1013.7
20260510045958 69 154 0.0 0.0 0.00 0.00 0.00 89 1013.7
20260510045652 69 154 0.0 0.0 0.00 0.00 0.00 89 1013.7
20260510044625 69 154 0.0 0.0 0.00 0.00 0.00 89 1013.7
20260510044409 69 154 0.0 0.0 0.00 0.00 0.00 89 1013.6
20260510043904 69 154 0.0 0.0 0.00 0.00 0.00 89 1013.5
20260510043116 69 154 0.0 0.0 0.00 0.00 0.00 89 1013.5
20260510042854 69 153 0.0 0.0 0.00 0.00 0.00 89 1013.5
20260510042105 69 153 0.0 0.0 0.00 0.00 0.00 89 1013.5
20260510041559 69 153 0.0 0.0 0.00 0.00 0.00 88 1013.4
20260510041052 69 153 0.0 0.0 0.00 0.00 0.00 88 1013.3
20260510040547 69 155 0.0 0.0 0.00 0.00 0.00 88 1013.4
20260510040041 70 155 0.0 0.0 0.00 0.00 0.00 88 1013.4
20260510035534 70 155 0.0 0.0 0.00 0.00 0.00 88 1013.4
20260510035029 70 156 0.0 0.0 0.00 0.00 0.00 88 1013.4
20260510034523 70 156 0.0 0.0 0.00 0.00 0.00 88 1013.5
20260510034016 70 156 0.0 0.0 0.00 0.00 0.00 87 1013.3
20260510033511 70 156 0.0 0.0 0.00 0.00 0.00 87 1013.3
20260510033005 70 156 0.0 0.0 0.00 0.00 0.00 87 1013.4
20260510032458 70 170 0.0 0.0 0.00 0.00 0.00 87 1013.5
20260510032240 70 170 0.0 0.0 0.00 0.00 0.00 87 1013.5
20260510031447 70 170 0.0 0.0 0.00 0.00 0.00 87 1013.3
20260510031228 70 170 0.0 0.0 0.00 0.00 0.00 86 1013.2
20260510030434 70 170 0.0 0.0 0.00 0.00 0.00 86 1013.2
20260510025929 70 174 0.0 0.0 0.00 0.00 0.00 86 1013.3
20260510025423 70 174 0.0 0.0 0.00 0.00 0.00 86 1013.2
20260510024917 70 177 0.0 0.0 0.00 0.00 0.00 86 1013.2
20260510024410 70 177 0.0 0.0 0.00 0.00 0.00 86 1013.2
20260510023904 70 177 0.0 0.0 0.00 0.00 0.00 86 1013.2
20260510023359 70 177 0.0 0.0 0.00 0.00 0.00 85 1013.2
20260510022852 70 177 0.0 0.0 0.00 0.00 0.00 85 1013.1
20260510022347 71 177 0.0 0.0 0.00 0.00 0.00 85 1013.0
20260510021844 71 177 0.0 0.0 0.00 0.00 0.00 85 1012.9
20260510021341 71 177 0.0 0.0 0.00 0.00 0.00 85 1012.9
20260510020840 71 177 0.0 0.0 0.00 0.00 0.00 84 1012.9
20260510020337 71 177 0.0 0.0 0.00 0.00 0.00 84 1012.9
20260510015836 71 176 0.0 0.0 0.00 0.00 0.00 84 1012.8
20260510015335 71 178 0.0 0.0 0.00 0.00 0.00 84 1012.8
20260510014837 71 178 0.0 0.0 0.00 0.00 0.00 84 1012.8
20260510014334 71 178 0.0 0.0 0.00 0.00 0.00 83 1012.8
20260510013833 72 177 0.0 0.0 0.00 0.00 0.00 83 1012.8
20260510013329 72 177 0.0 0.0 0.00 0.00 0.00 83 1012.7
20260510012829 72 177 0.0 0.0 0.00 0.00 0.00 83 1012.7
20260510012329 72 177 0.0 0.0 0.00 0.00 0.00 83 1012.6
20260510012117 72 177 0.0 0.0 0.00 0.00 0.00 83 1012.6
20260510011328 72 177 0.0 0.0 0.00 0.00 0.00 82 1012.4
20260510010827 72 177 0.0 0.0 0.00 0.00 0.00 82 1012.3
20260510010608 72 178 0.0 0.0 0.00 0.00 0.00 82 1012.3
20260510005825 73 178 0.0 0.0 0.00 0.00 0.00 82 1012.3
20260510005326 73 176 0.0 0.0 0.00 0.00 0.00 82 1012.2
20260510005112 73 176 0.0 0.0 0.00 0.00 0.00 82 1012.0
20260510004323 73 176 0.0 0.0 0.00 0.00 0.00 81 1011.8
20260510003816 73 179 0.0 0.0 0.00 0.00 0.00 81 1011.7
20260510003309 73 200 0.0 0.0 0.00 0.00 0.00 81 1012.1
20260510002804 73 200 0.0 0.0 0.00 0.00 0.00 81 1012.1
20260510002300 74 200 0.0 0.0 0.00 0.00 0.00 81 1012.0
20260510001752 74 200 0.0 0.0 0.00 0.00 0.00 80 1011.7
20260510001246 74 194 0.0 0.0 0.00 0.00 0.00 80 1011.8
20260510000740 74 197 0.0 0.0 0.00 0.00 0.00 80 1011.8
20260510000234 74 197 0.0 0.0 0.00 0.00 0.00 79 1011.7
20260509235728 74 197 0.0 0.9 0.00 0.00 0.00 79 1011.3
20260509235510 74 186 0.0 0.9 0.00 0.00 0.00 79 1011.5
20260509234716 75 214 0.0 0.0 0.00 0.00 0.00 78 1011.6
20260509234211 75 214 0.0 0.0 0.00 0.00 0.00 78 1011.6
20260509233703 75 214 0.0 0.0 0.00 0.00 0.00 78 1011.6
20260509233158 75 213 0.0 0.9 0.00 0.00 0.00 77 1011.6
20260509232652 75 213 0.0 0.9 0.00 0.00 0.00 77 1011.6
20260509232152 76 178 0.0 0.0 0.00 0.00 0.00 76 1011.6
20260509231652 76 178 0.0 0.0 0.00 0.00 0.00 76 1011.4
20260509231439 76 177 0.0 0.0 0.00 0.00 0.00 76 1011.2
20260509230650 76 178 0.0 0.0 0.00 0.00 0.00 75 1011.3
20260509230148 76 178 0.0 0.0 0.00 0.00 0.00 75 1011.2
20260509225646 76 178 0.0 0.0 0.00 0.00 0.00 75 1011.1
20260509225144 76 178 0.0 0.9 0.00 0.00 0.00 75 1011.2
20260509224929 77 177 0.0 0.9 0.00 0.00 0.00 75 1011.2
20260509224140 77 115 0.0 0.9 0.00 0.00 0.00 75 1011.2
20260509223639 77 115 0.0 0.9 0.00 0.00 0.00 75 1011.1
20260509223143 77 196 0.0 0.0 0.00 0.00 0.00 75 1011.1
20260509222640 77 196 0.0 0.0 0.00 0.00 0.00 75 1010.9
20260509222139 77 198 0.0 0.0 0.00 0.00 0.00 74 1010.9
20260509221925 77 198 0.0 0.0 0.00 0.00 0.00 74 1011.0
20260509221136 77 210 0.0 0.9 0.00 0.00 0.00 74 1011.1
20260509220635 77 210 0.0 0.9 0.00 0.00 0.00 74 1011.2
20260509220422 78 246 0.0 0.9 0.00 0.00 0.00 74 1011.1
20260509215635 78 156 0.0 1.7 0.00 0.00 0.00 74 1011.1
20260509215419 78 215 0.0 4.3 0.00 0.00 0.00 74 1011.1
20260509214635 78 221 0.0 4.3 0.00 0.00 0.00 74 1011.2
20260509214136 78 219 0.0 1.7 0.00 0.00 0.00 74 1011.2
20260509213635 78 232 0.0 0.9 0.00 0.00 0.00 74 1011.1
20260509213136 78 244 0.0 0.9 0.00 0.00 0.00 74 1011.2
20260509212920 78 192 0.0 0.0 0.00 0.00 0.00 74 1011.4
20260509212420 78 197 0.0 0.9 0.00 0.00 0.00 74 1011.4
20260509211631 78 197 0.0 0.9 0.00 0.00 0.00 74 1011.4
20260509211131 78 235 0.0 0.9 0.00 0.00 0.00 74 1011.2
20260509210631 78 196 0.0 1.7 0.00 0.00 0.00 74 1011.0
20260509210131 78 198 0.0 1.7 0.00 0.00 0.00 74 1010.9
20260509205631 78 211 0.0 2.6 0.00 0.00 0.00 74 1010.7
20260509205132 78 173 0.0 2.6 0.00 0.00 0.00 74 1010.7
20260509204632 78 137 0.0 0.9 0.00 0.00 0.00 75 1011.0
20260509204128 78 128 0.0 0.0 0.00 0.00 0.00 75 1011.0
20260509203917 78 127 0.0 0.0 0.00 0.00 0.00 74 1011.2
20260509203127 79 128 0.0 0.0 0.00 0.00 0.00 73 1011.2
20260509202630 79 167 0.0 0.0 0.00 0.00 0.00 72 1011.2
20260509202128 79 164 0.0 0.0 0.00 0.00 0.00 71 1011.3
20260509201627 80 165 0.0 0.0 0.00 0.00 0.00 71 1011.4
20260509201126 80 165 0.0 0.0 0.00 0.00 0.00 70 1011.3
20260509200628 80 165 0.0 0.0 0.00 0.00 0.00 70 1011.3
20260509200128 80 165 0.0 0.0 0.00 0.00 0.00 69 1011.4
20260509195916 80 165 0.0 0.0 0.00 0.00 0.00 69 1011.4
20260509195115 80 165 0.0 0.0 0.00 0.00 0.00 68 1011.3
20260509194855 80 165 0.0 0.0 0.00 0.00 0.00 68 1011.3
20260509194356 80 165 0.0 0.0 0.00 0.00 0.00 68 1011.3
20260509193557 80 171 0.0 0.0 0.00 0.00 0.00 68 1011.3
20260509193052 80 212 0.0 0.0 0.00 0.00 0.00 67 1011.4
20260509192849 80 212 0.0 0.0 0.00 0.00 0.00 67 1011.4
20260509192049 80 219 0.0 0.9 0.00 0.00 0.00 67 1011.5
20260509191549 80 219 0.0 1.7 0.00 0.00 0.00 67 1011.6
20260509191125 81 248 0.0 1.7 0.00 0.00 0.00 67 1011.7
20260509191115 81 170 0.0 1.7 0.00 0.00 0.00 67 1011.7
20260509190045 81 315 0.0 1.7 0.00 0.00 0.00 67 1011.7
20260509185543 81 236 0.0 0.9 0.00 0.00 0.00 67 1011.6
20260509185041 81 236 0.0 3.5 0.00 0.00 0.00 67 1011.7
20260509184539 81 214 0.0 3.5 0.00 0.00 0.00 67 1011.7
20260509184040 81 207 0.0 2.6 0.00 0.00 0.00 68 1011.7
20260509183829 82 169 0.0 0.9 0.00 0.00 0.00 68 1011.7
20260509183325 82 307 0.0 1.7 0.00 0.00 0.00 68 1011.7
20260509182535 81 221 0.0 3.5 0.00 0.00 0.00 68 1011.7
20260509182033 81 179 0.0 3.5 0.00 0.00 0.00 69 1011.5
20260509181531 81 203 0.0 2.6 0.00 0.00 0.00 70 1011.6
20260509181030 81 207 0.9 4.3 0.00 0.00 0.00 71 1011.7
20260509180532 81 218 0.0 4.3 0.00 0.00 0.00 72 1011.5
20260509180029 81 190 0.0 2.6 0.00 0.00 0.00 73 1011.5
20260509175526 80 188 0.0 2.6 0.00 0.00 0.00 74 1011.7
20260509175025 80 210 0.0 3.5 0.00 0.00 0.00 74 1011.6
20260509174526 79 205 0.0 3.5 0.00 0.00 0.00 75 1011.7
20260509174019 79 214 0.0 2.6 0.00 0.00 0.00 75 1012.0
20260509173513 78 200 0.0 1.7 0.00 0.00 0.00 75 1012.1
20260509173255 78 226 0.0 1.7 0.00 0.00 0.00 75 1012.0
20260509172501 78 226 0.0 1.7 0.00 0.00 0.00 76 1012.1
20260509171955 78 212 0.0 1.7 0.00 0.00 0.00 76 1012.1
20260509171449 78 219 0.0 2.6 0.00 0.00 0.00 76 1012.5
20260509170943 78 188 0.0 4.3 0.00 0.00 0.00 76 1012.6
20260509170437 78 200 0.0 4.3 0.00 0.00 0.00 76 1012.5
20260509165930 78 179 0.0 1.7 0.00 0.00 0.00 77 1012.6
20260509165425 77 204 0.0 2.6 0.00 0.00 0.00 77 1012.7
20260509165211 77 196 0.0 2.6 0.00 0.00 0.00 77 1012.7
20260509164414 77 188 0.0 3.5 0.00 0.00 0.00 77 1012.8
20260509163906 77 172 0.0 3.5 0.00 0.00 0.00 78 1012.8
20260509163401 77 186 0.0 4.3 0.00 0.00 0.00 78 1012.8
20260509162856 76 203 0.0 4.3 0.00 0.00 0.00 78 1012.9
20260509162350 76 173 0.0 0.9 0.00 0.00 0.00 79 1013.0
20260509161843 76 193 0.0 0.0 0.00 0.00 0.00 79 1013.2
20260509161337 76 193 0.0 2.6 0.00 0.00 0.00 80 1013.1
20260509160830 76 193 0.0 2.6 0.00 0.00 0.00 82 1012.9
20260509160325 76 194 0.0 1.7 0.00 0.00 0.00 83 1012.9
20260509155819 76 192 0.9 4.3 0.00 0.00 0.00 84 1012.8
20260509155312 76 179 0.9 4.3 0.00 0.00 0.00 85 1012.8
20260509154807 75 196 0.0 3.5 0.00 0.00 0.00 86 1012.8
20260509154302 75 203 0.9 4.3 0.00 0.00 0.00 87 1012.8
20260509153755 75 178 1.7 4.3 0.00 0.00 0.00 88 1012.8
20260509153249 74 195 1.7 5.2 0.00 0.00 0.00 88 1012.8
20260509152743 74 156 0.9 5.2 0.00 0.00 0.00 88 1012.9
20260509152237 74 160 0.9 3.5 0.00 0.00 0.00 88 1012.9
20260509151731 73 178 0.9 3.5 0.00 0.00 0.00 88 1013.0
20260509151225 73 170 0.0 1.7 0.00 0.00 0.00 89 1013.3
20260509150719 73 168 0.0 0.0 0.00 0.00 0.00 89 1013.4
20260509150213 73 168 0.0 0.9 0.00 0.00 0.00 89 1013.5
20260509145707 73 150 0.0 0.9 0.00 0.00 0.00 89 1013.6
20260509145201 73 166 0.0 0.0 0.00 0.00 0.00 89 1013.7
20260509144654 73 166 0.0 0.0 0.00 0.00 0.00 89 1013.6
20260509144221 72 166 0.0 0.9 0.00 0.00 0.00 89 1013.5
20260509144211 72 166 0.0 0.9 0.00 0.00 0.00 89 1013.7
20260509143137 72 153 0.0 1.7 0.00 0.00 0.00 89 1013.5
20260509142631 72 152 0.0 1.7 0.00 0.00 0.00 89 1013.5
20260509142124 72 158 0.0 1.7 0.00 0.00 0.00 89 1013.4
20260509141619 72 133 0.0 1.7 0.00 0.00 0.00 89 1013.2
20260509141113 71 151 0.9 1.7 0.00 0.00 0.00 89 1013.2
20260509140607 71 139 0.9 1.7 0.00 0.00 0.00 89 1013.1
20260509135555 71 145 0.9 2.6 0.00 0.00 0.00 89 1013.1
20260509135049 71 155 0.9 1.7 0.00 0.00 0.00 89 1013.1
20260509134543 70 156 0.0 1.7 0.00 0.00 0.00 88 1013.1
20260509134328 70 150 0.9 1.7 0.00 0.00 0.00 88 1013.2
20260509133531 70 150 0.0 1.7 0.00 0.00 0.00 88 1013.1
20260509133025 70 150 0.0 0.9 0.00 0.00 0.00 88 1013.1
20260509132519 70 152 0.9 1.7 0.00 0.00 0.00 87 1013.1
20260509132013 70 144 0.0 1.7 0.00 0.00 0.00 88 1013.1
20260509131507 71 143 0.0 0.9 0.00 0.00 0.00 88 1013.3
20260509131001 71 103 0.0 0.0 0.00 0.00 0.00 88 1013.3
20260509130455 71 102 0.0 0.0 0.00 0.00 0.00 88 1013.4
20260509130239 71 102 0.0 0.0 0.00 0.00 0.00 89 1013.4
20260509125443 71 102 0.0 0.0 0.00 0.00 0.00 90 1013.5
20260509125225 71 102 0.0 0.0 0.00 0.00 0.00 90 1013.5
20260509124431 71 102 0.0 0.0 0.00 0.00 0.00 91 1013.6
20260509124215 71 102 0.0 0.0 0.00 0.00 0.00 92 1013.6
20260509123419 70 102 0.0 0.0 0.00 0.00 0.00 92 1013.7
20260509122913 70 102 0.0 0.0 0.00 0.00 0.00 93 1013.6
20260509122653 70 102 0.0 0.0 0.00 0.00 0.00 94 1013.5
20260509121903 69 102 0.0 0.0 0.00 0.00 0.00 94 1013.6
20260509121644 69 102 0.0 0.0 0.00 0.00 0.00 95 1013.6
20260509120849 69 102 0.0 0.0 0.00 0.00 0.00 95 1013.5
20260509120343 68 102 0.0 0.0 0.00 0.00 0.00 95 1013.5
20260509115836 68 102 0.0 0.9 0.00 0.00 0.00 95 1013.5
20260509115331 67 102 0.0 0.9 0.00 0.00 0.00 95 1013.3
20260509114825 66 103 0.0 0.9 0.00 0.00 0.00 95 1013.3
20260509114319 65 103 0.0 0.0 0.00 0.00 0.00 95 1013.3
20260509113815 64 103 0.0 0.0 0.00 0.00 0.00 95 1013.1
20260509113601 64 103 0.0 0.0 0.00 0.00 0.00 95 1013.1
20260509113105 63 103 0.0 0.0 0.00 0.00 0.00 95 1013.1
20260509112317 63 103 0.0 0.0 0.00 0.00 0.00 95 1013.3
20260509111817 63 103 0.0 0.0 0.00 0.00 0.00 94 1013.0
20260509111317 63 103 0.0 0.0 0.00 0.00 0.00 94 1012.9
20260509110815 62 103 0.0 0.0 0.00 0.00 0.00 94 1012.8
20260509110317 62 103 0.0 0.0 0.00 0.00 0.00 94 1012.8
20260509105818 62 103 0.0 0.0 0.00 0.00 0.00 94 1012.8
20260509105319 62 103 0.0 0.0 0.00 0.00 0.00 94 1012.7
20260509104906 63 103 0.0 0.0 0.00 0.00 0.00 94 1012.5
20260509104851 62 103 0.0 0.0 0.00 0.00 0.00 94 1012.6
20260509104108 63 103 0.0 0.0 0.00 0.00 0.00 94 1012.4
20260509103315 63 103 0.0 0.0 0.00 0.00 0.00 94 1012.3
20260509102815 63 103 0.0 0.0 0.00 0.00 0.00 94 1012.3
20260509102312 63 103 0.0 0.0 0.00 0.00 0.00 93 1012.2
20260509101812 63 103 0.0 0.0 0.00 0.00 0.00 93 1012.2
20260509101312 63 103 0.0 0.0 0.00 0.00 0.00 93 1012.3
20260509100812 63 103 0.0 0.0 0.00 0.00 0.00 93 1012.4
20260509100311 63 103 0.0 0.0 0.00 0.00 0.00 93 1012.3
20260509095814 63 103 0.0 0.0 0.00 0.00 0.00 93 1012.2
20260509095309 63 103 0.0 0.0 0.00 0.00 0.00 93 1012.2
20260509094808 63 103 0.0 0.0 0.00 0.00 0.00 93 1012.3
20260509094309 63 103 0.0 0.0 0.00 0.00 0.00 93 1012.5
20260509093807 64 103 0.0 0.0 0.00 0.00 0.00 93 1012.5
20260509093307 64 103 0.0 0.0 0.00 0.00 0.00 93 1012.4
20260509093054 64 103 0.0 0.0 0.00 0.00 0.00 93 1012.4
20260509092307 64 103 0.0 0.0 0.00 0.00 0.00 93 1012.5
20260509091808 64 103 0.0 0.0 0.00 0.00 0.00 93 1012.4
20260509091309 64 104 0.0 0.0 0.00 0.00 0.00 93 1012.4
20260509090808 64 104 0.0 0.0 0.00 0.00 0.00 93 1012.7
20260509090309 64 104 0.0 0.0 0.00 0.00 0.00 93 1012.7
20260509085809 64 104 0.0 0.0 0.00 0.00 0.00 93 1012.9
20260509085309 64 104 0.0 0.9 0.00 0.00 0.00 93 1012.8
20260509085106 64 104 0.0 0.9 0.00 0.00 0.00 92 1012.7
20260509084307 64 145 0.0 0.9 0.00 0.00 0.00 92 1012.6
20260509083807 64 143 0.0 0.0 0.00 0.00 0.00 92 1012.7
20260509083309 64 143 0.0 0.9 0.00 0.00 0.00 92 1012.7